| time (UTC) | temp F | wind direction | speed knots | gust knots | rain 1hr in | rain 24hr in | rain mn in | humidity % | barometer mb |
| 20260506204255 | 74 | 107 | 5.2 | 10.4 | 0.00 | 0.00 | 0.00 | 33 | 1014.6 |
| 20260506203754 | 75 | 87 | 2.6 | 10.4 | 0.00 | 0.00 | 0.00 | 33 | 1014.6 |
| 20260506203255 | -44 | 107 | 2.6 | 8.7 | 0.00 | 0.00 | 0.00 | 33 | 1014.6 |
| 20260506202755 | 75 | 127 | 3.5 | 8.7 | 0.00 | 0.00 | 0.00 | 33 | 1014.6 |
| 20260506202255 | 75 | 221 | 1.7 | 7.0 | 0.00 | 0.00 | 0.00 | 33 | 1014.6 |
| 20260506201754 | -55 | 197 | 0.0 | 5.2 | 0.00 | 0.00 | 0.00 | 34 | 1014.6 |
| 20260506201254 | -55 | 197 | 0.0 | 8.7 | 0.00 | 0.00 | 0.00 | 34 | 1014.6 |
| 20260506200756 | 26 | 114 | 5.2 | 8.7 | 0.00 | 0.00 | 0.00 | 34 | 1014.9 |
| 20260506200255 | 23 | 105 | 5.2 | 8.7 | 0.00 | 0.00 | 0.00 | 35 | 1014.9 |
| 20260506195755 | 35 | 60 | 3.5 | 8.7 | 0.00 | 0.00 | 0.00 | 35 | 1014.9 |
| 20260506195255 | 47 | 75 | 4.3 | 7.8 | 0.00 | 0.00 | 0.00 | 34 | 1014.9 |
| 20260506194754 | 24 | 269 | 0.9 | 7.8 | 0.00 | 0.00 | 0.00 | 36 | 1014.9 |
| 20260506194256 | 24 | 34 | 6.1 | 7.8 | 0.00 | 0.00 | 0.00 | 35 | 1014.9 |
| 20260506193756 | 32 | 60 | 4.3 | 7.8 | 0.00 | 0.00 | 0.00 | 35 | 1014.9 |
| 20260506193255 | 47 | 284 | 0.0 | 4.3 | 0.00 | 0.00 | 0.00 | 35 | 1015.3 |
| 20260506192754 | 46 | 332 | 0.0 | 9.6 | 0.00 | 0.00 | 0.00 | 36 | 1014.9 |
| 20260506192254 | 40 | 156 | 2.6 | 9.6 | 0.00 | 0.00 | 0.00 | 36 | 1015.3 |
| 20260506191756 | 42 | 103 | 3.5 | 8.7 | 0.00 | 0.00 | 0.00 | 36 | 1015.3 |
| 20260506191256 | 37 | 325 | 2.6 | 8.7 | 0.00 | 0.00 | 0.00 | 36 | 1015.3 |
| 20260506190755 | 48 | 94 | 3.5 | 9.6 | 0.00 | 0.00 | 0.00 | 36 | 1015.3 |
| 20260506190255 | 40 | 141 | 5.2 | 9.6 | 0.00 | 0.00 | 0.00 | 37 | 1015.3 |
| 20260506185754 | 40 | 97 | 0.0 | 9.6 | 0.00 | 0.00 | 0.00 | 36 | 1015.3 |
| 20260506185254 | 38 | 108 | 4.3 | 9.6 | 0.00 | 0.00 | 0.00 | 36 | 1015.3 |
| 20260506184755 | 31 | 37 | 4.3 | 7.8 | 0.00 | 0.00 | 0.00 | 36 | 1015.3 |
| 20260506184255 | 43 | 87 | 6.1 | 7.8 | 0.00 | 0.00 | 0.00 | 36 | 1015.3 |
| 20260506183755 | 36 | 187 | 0.9 | 8.7 | 0.00 | 0.00 | 0.00 | 37 | 1015.3 |
| 20260506183254 | 34 | 176 | 1.7 | 8.7 | 0.00 | 0.00 | 0.00 | 37 | 1015.3 |
| 20260506182754 | 40 | 143 | 1.7 | 6.1 | 0.00 | 0.00 | 0.00 | 37 | 1015.6 |
| 20260506182254 | 42 | 138 | 0.0 | 7.0 | 0.00 | 0.00 | 0.00 | 38 | 1015.3 |
| 20260506181756 | 45 | 83 | 4.3 | 7.8 | 0.00 | 0.00 | 0.00 | 38 | 1015.3 |
| 20260506181255 | 46 | 131 | 2.6 | 7.8 | 0.00 | 0.00 | 0.00 | 37 | 1015.6 |
| 20260506180755 | 47 | 63 | 3.5 | 7.8 | 0.00 | 0.00 | 0.00 | 38 | 1015.6 |
| 20260506180255 | 47 | 179 | 5.2 | 7.8 | 0.00 | 0.00 | 0.00 | 38 | 1015.6 |
| 20260506175755 | 47 | 190 | 1.7 | 7.0 | 0.00 | 0.00 | 0.00 | 40 | 1015.6 |
| 20260506175255 | 47 | 94 | 3.5 | 8.7 | 0.00 | 0.00 | 0.00 | 40 | 1015.6 |
| 20260506174754 | 47 | 90 | 4.3 | 8.7 | 0.00 | 0.00 | 0.00 | 39 | 1015.6 |
| 20260506174254 | 47 | 169 | 3.5 | 8.7 | 0.00 | 0.00 | 0.00 | 40 | 1015.6 |
| 20260506173756 | 47 | 96 | 4.3 | 9.6 | 0.00 | 0.00 | 0.00 | 40 | 1015.6 |
| 20260506173255 | 47 | 169 | 4.3 | 9.6 | 0.00 | 0.00 | 0.00 | 41 | 1015.6 |
| 20260506172754 | 48 | 127 | 4.3 | 6.1 | 0.00 | 0.00 | 0.00 | 40 | 1015.6 |
| 20260506172254 | 47 | 153 | 1.7 | 7.0 | 0.00 | 0.00 | 0.00 | 40 | 1015.6 |
| 20260506171756 | 47 | 108 | 3.5 | 7.0 | 0.00 | 0.00 | 0.00 | 41 | 1015.6 |
| 20260506171256 | 47 | 15 | 4.3 | 7.0 | 0.00 | 0.00 | 0.00 | 41 | 1015.6 |
| 20260506170756 | 47 | 10 | 2.6 | 7.8 | 0.00 | 0.00 | 0.00 | 41 | 1015.3 |
| 20260506170255 | 47 | 156 | 1.7 | 8.7 | 0.00 | 0.00 | 0.00 | 42 | 1015.3 |
| 20260506165755 | 47 | 104 | 1.7 | 8.7 | 0.00 | 0.00 | 0.00 | 43 | 1015.3 |
| 20260506165255 | 46 | 120 | 5.2 | 7.8 | 0.00 | 0.00 | 0.00 | 42 | 1015.3 |
| 20260506164755 | 46 | 87 | 4.3 | 7.8 | 0.00 | 0.00 | 0.00 | 42 | 1015.3 |
| 20260506164254 | 46 | 93 | 3.5 | 7.8 | 0.00 | 0.00 | 0.00 | 43 | 1015.3 |
| 20260506163756 | 46 | 124 | 2.6 | 5.2 | 0.00 | 0.00 | 0.00 | 43 | 1015.3 |
| 20260506163255 | 46 | 100 | 1.7 | 7.8 | 0.00 | 0.00 | 0.00 | 43 | 1015.3 |
| 20260506162755 | 45 | 58 | 3.5 | 7.8 | 0.00 | 0.00 | 0.00 | 44 | 1015.3 |
| 20260506162254 | 45 | 111 | 0.9 | 7.8 | 0.00 | 0.00 | 0.00 | 44 | 1015.3 |
| 20260506161756 | 43 | 117 | 2.6 | 6.1 | 0.00 | 0.00 | 0.00 | 44 | 1015.3 |
| 20260506161256 | 26 | 135 | 1.7 | 5.2 | 0.00 | 0.00 | 0.00 | 45 | 1015.3 |
| 20260506160755 | 40 | 52 | 3.5 | 4.3 | 0.00 | 0.00 | 0.00 | 45 | 1015.3 |
| 20260506160254 | 19 | 44 | 0.0 | 6.1 | 0.00 | 0.00 | 0.00 | 46 | 1015.3 |
| 20260506155754 | 43 | 107 | 0.0 | 6.1 | 0.00 | 0.00 | 0.00 | 46 | 1015.3 |
| 20260506155254 | 17 | 107 | 1.7 | 6.1 | 0.00 | 0.00 | 0.00 | 46 | 1015.3 |
| 20260506154755 | 47 | 79 | 0.9 | 6.1 | 0.00 | 0.00 | 0.00 | 47 | 1015.3 |
| 20260506154255 | 52 | 1 | 0.9 | 6.1 | 0.00 | 0.00 | 0.00 | 46 | 1015.3 |
| 20260506153755 | 54 | 46 | 0.0 | 4.3 | 0.00 | 0.00 | 0.00 | 47 | 1015.3 |
| 20260506153255 | 54 | 338 | 0.0 | 5.2 | 0.00 | 0.00 | 0.00 | 47 | 1015.3 |
| 20260506152755 | 55 | 38 | 2.6 | 5.2 | 0.00 | 0.00 | 0.00 | 47 | 1015.3 |
| 20260506152254 | 55 | 58 | 0.0 | 5.2 | 0.00 | 0.00 | 0.00 | 48 | 1015.3 |
| 20260506151755 | 55 | 48 | 0.0 | 5.2 | 0.00 | 0.00 | 0.00 | 48 | 1015.3 |
| 20260506151255 | 56 | 63 | 1.7 | 5.2 | 0.00 | 0.00 | 0.00 | 47 | 1014.9 |
| 20260506150755 | 56 | 34 | 4.3 | 6.1 | 0.00 | 0.00 | 0.00 | 47 | 1014.9 |
| 20260506150302 | 56 | 51 | 3.5 | 6.1 | 0.00 | 0.00 | 0.00 | 47 | 1014.9 |
| 20260506145754 | 56 | 6 | 0.9 | 5.2 | 0.00 | 0.00 | 0.00 | 47 | 1014.9 |
| 20260506145254 | 56 | 352 | 0.0 | 6.1 | 0.00 | 0.00 | 0.00 | 47 | 1014.9 |
| 20260506144756 | 55 | 6 | 0.9 | 6.1 | 0.00 | 0.00 | 0.00 | 47 | 1014.9 |
| 20260506144255 | 55 | 14 | 4.3 | 5.2 | 0.00 | 0.00 | 0.00 | 46 | 1014.9 |
| 20260506143755 | 55 | 354 | 0.9 | 3.5 | 0.00 | 0.00 | 0.00 | 47 | 1014.9 |
| 20260506143255 | 55 | 39 | 0.9 | 3.5 | 0.00 | 0.00 | 0.00 | 47 | 1014.6 |
| 20260506142754 | 55 | 93 | 0.0 | 3.5 | 0.00 | 0.00 | 0.00 | 48 | 1014.6 |
| 20260506142255 | 55 | 58 | 0.0 | 1.7 | 0.00 | 0.00 | 0.00 | 48 | 1014.6 |
| 20260506141755 | 54 | 58 | 0.0 | 2.6 | 0.00 | 0.00 | 0.00 | 49 | 1014.6 |
| 20260506141255 | 54 | 35 | 0.0 | 4.3 | 0.00 | 0.00 | 0.00 | 49 | 1014.6 |
| 20260506140754 | 54 | 46 | 0.0 | 5.2 | 0.00 | 0.00 | 0.00 | 49 | 1014.6 |
| 20260506140254 | 54 | 84 | 0.9 | 5.2 | 0.00 | 0.00 | 0.00 | 49 | 1014.6 |
| 20260506135756 | 54 | 65 | 2.6 | 4.3 | 0.00 | 0.00 | 0.00 | 50 | 1014.3 |
| 20260506135255 | 54 | 314 | 0.0 | 0.0 | 0.00 | 0.00 | 0.00 | 52 | 1014.3 |
| 20260506134755 | 53 | 314 | 0.0 | 0.0 | 0.00 | 0.00 | 0.00 | 54 | 1014.3 |
| 20260506134255 | 53 | 314 | 0.0 | 0.0 | 0.00 | 0.00 | 0.00 | 56 | 1013.9 |
| 20260506133755 | 52 | 314 | 0.0 | 0.0 | 0.00 | 0.00 | 0.00 | 57 | 1013.9 |
| 20260506133254 | 52 | 314 | 0.0 | 0.0 | 0.00 | 0.00 | 0.00 | 58 | 1013.9 |
| 20260506132754 | 52 | 314 | 0.0 | 0.0 | 0.00 | 0.00 | 0.00 | 58 | 1013.9 |
| 20260506132254 | 52 | 314 | 0.0 | 0.0 | 0.00 | 0.00 | 0.00 | 59 | 1013.6 |
| 20260506131754 | 51 | 314 | 0.0 | 0.0 | 0.00 | 0.00 | 0.00 | 60 | 1013.6 |
| 20260506131256 | 51 | 314 | 0.0 | 0.0 | 0.00 | 0.00 | 0.00 | 60 | 1013.6 |
| 20260506130755 | 51 | 314 | 0.0 | 0.0 | 0.00 | 0.00 | 0.00 | 60 | 1013.6 |
| 20260506130255 | 51 | 314 | 0.0 | 0.0 | 0.00 | 0.00 | 0.00 | 60 | 1013.6 |
| 20260506125755 | 51 | 314 | 0.0 | 0.0 | 0.00 | 0.00 | 0.00 | 60 | 1013.6 |
| 20260506125255 | 47 | 314 | 0.0 | 0.0 | 0.00 | 0.00 | 0.00 | 59 | 1013.6 |
| 20260506124754 | 3 | 314 | 0.0 | 0.0 | 0.00 | 0.00 | 0.00 | 59 | 1013.2 |
| 20260506124254 | 33 | 314 | 0.0 | 0.0 | 0.00 | 0.00 | 0.00 | 58 | 1013.2 |
| 20260506123754 | 38 | 314 | 0.0 | 0.0 | 0.00 | 0.00 | 0.00 | 58 | 1013.2 |
| 20260506123255 | 40 | 314 | 0.0 | 0.0 | 0.00 | 0.00 | 0.00 | 58 | 1012.9 |
| 20260506122755 | 40 | 314 | 0.0 | 0.0 | 0.00 | 0.00 | 0.00 | 57 | 1012.9 |
| 20260506122255 | 11 | 314 | 0.0 | 0.0 | 0.00 | 0.00 | 0.00 | 57 | 1012.9 |
| 20260506121755 | 15 | 314 | 0.0 | 0.0 | 0.00 | 0.00 | 0.00 | 57 | 1012.9 |
| 20260506121255 | 21 | 314 | 0.0 | 0.0 | 0.00 | 0.00 | 0.00 | 58 | 1012.9 |
| 20260506120754 | 23 | 314 | 0.0 | 0.0 | 0.00 | 0.00 | 0.00 | 58 | 1012.9 |
| 20260506120254 | 25 | 314 | 0.0 | 0.0 | 0.00 | 0.00 | 0.00 | 59 | 1012.9 |
| 20260506115754 | 40 | 314 | 0.0 | 0.0 | 0.00 | 0.00 | 0.00 | 58 | 1012.9 |
| 20260506115254 | 39 | 314 | 0.0 | 0.0 | 0.00 | 0.00 | 0.00 | 58 | 1012.9 |
| 20260506114756 | 41 | 314 | 0.0 | 0.0 | 0.00 | 0.00 | 0.00 | 58 | 1012.9 |
| 20260506114256 | 38 | 314 | 0.0 | 0.0 | 0.00 | 0.00 | 0.00 | 58 | 1012.9 |
| 20260506113755 | 38 | 314 | 0.0 | 0.0 | 0.00 | 0.00 | 0.00 | 58 | 1012.6 |
| 20260506113255 | 39 | 314 | 0.0 | 0.0 | 0.00 | 0.00 | 0.00 | 57 | 1012.6 |
| 20260506112755 | 26 | 314 | 0.0 | 0.0 | 0.00 | 0.00 | 0.00 | 58 | 1012.6 |
| 20260506112255 | 25 | 314 | 0.0 | 0.0 | 0.00 | 0.00 | 0.00 | 58 | 1012.6 |
| 20260506111754 | 20 | 314 | 0.0 | 0.0 | 0.00 | 0.00 | 0.00 | 58 | 1012.6 |
| 20260506111254 | 28 | 314 | 0.0 | 0.0 | 0.00 | 0.00 | 0.00 | 59 | 1012.6 |
| 20260506110754 | 31 | 314 | 0.0 | 0.0 | 0.00 | 0.00 | 0.00 | 59 | 1012.6 |
| 20260506110255 | 34 | 314 | 0.0 | 4.3 | 0.00 | 0.00 | 0.00 | 58 | 1012.6 |
| 20260506105755 | 38 | 314 | 0.0 | 4.3 | 0.00 | 0.00 | 0.00 | 58 | 1012.6 |
| 20260506105255 | 33 | 336 | 0.0 | 4.3 | 0.00 | 0.00 | 0.00 | 58 | 1012.6 |
| 20260506104754 | 26 | 6 | 0.0 | 1.7 | 0.00 | 0.00 | 0.00 | 58 | 1012.2 |
| 20260506104254 | 27 | 293 | 0.0 | 0.0 | 0.00 | 0.00 | 0.00 | 56 | 1012.2 |
| 20260506103754 | 38 | 293 | 0.0 | 0.0 | 0.00 | 0.00 | 0.00 | 56 | 1012.2 |
| 20260506103256 | 40 | 293 | 0.0 | 0.0 | 0.00 | 0.00 | 0.00 | 56 | 1011.9 |
| 20260506102756 | 13 | 293 | 0.0 | 0.0 | 0.00 | 0.00 | 0.00 | 56 | 1011.9 |
| 20260506102256 | 19 | 293 | 0.0 | 0.0 | 0.00 | 0.00 | 0.00 | 56 | 1011.9 |
| 20260506101755 | 21 | 293 | 0.0 | 0.0 | 0.00 | 0.00 | 0.00 | 55 | 1011.9 |
| 20260506101255 | 32 | 293 | 0.0 | 0.0 | 0.00 | 0.00 | 0.00 | 55 | 1011.9 |
| 20260506100755 | 31 | 293 | 0.0 | 0.0 | 0.00 | 0.00 | 0.00 | 55 | 1011.9 |
| 20260506100255 | 24 | 293 | 0.0 | 0.0 | 0.00 | 0.00 | 0.00 | 54 | 1011.9 |
| 20260506095755 | 36 | 293 | 0.0 | 0.0 | 0.00 | 0.00 | 0.00 | 54 | 1011.9 |
| 20260506095254 | 33 | 293 | 0.0 | 0.0 | 0.00 | 0.00 | 0.00 | 54 | 1011.6 |
| 20260506094756 | 31 | 293 | 0.0 | 0.0 | 0.00 | 0.00 | 0.00 | 53 | 1011.6 |
| 20260506094256 | 38 | 293 | 0.0 | 0.0 | 0.00 | 0.00 | 0.00 | 53 | 1011.6 |
| 20260506093755 | 34 | 293 | 0.0 | 0.0 | 0.00 | 0.00 | 0.00 | 53 | 1011.6 |
| 20260506093255 | 33 | 293 | 0.0 | 0.0 | 0.00 | 0.00 | 0.00 | 53 | 1011.6 |
| 20260506092754 | 37 | 293 | 0.0 | 0.0 | 0.00 | 0.00 | 0.00 | 53 | 1011.6 |
| 20260506092254 | 31 | 293 | 0.0 | 0.0 | 0.00 | 0.00 | 0.00 | 52 | 1011.6 |
| 20260506091754 | 34 | 293 | 0.0 | 0.0 | 0.00 | 0.00 | 0.00 | 52 | 1011.6 |
| 20260506091254 | 31 | 293 | 0.0 | 0.0 | 0.00 | 0.00 | 0.00 | 52 | 1011.6 |
| 20260506090756 | 36 | 293 | 0.0 | 0.0 | 0.00 | 0.00 | 0.00 | 52 | 1011.6 |
| 20260506090255 | 32 | 293 | 0.0 | 0.0 | 0.00 | 0.00 | 0.00 | 51 | 1011.2 |
| 20260506085755 | 36 | 293 | 0.0 | 0.0 | 0.00 | 0.00 | 0.00 | 52 | 1011.2 |
| 20260506085255 | 30 | 293 | 0.0 | 0.0 | 0.00 | 0.00 | 0.00 | 51 | 1011.2 |
| 20260506084755 | 34 | 293 | 0.0 | 0.0 | 0.00 | 0.00 | 0.00 | 51 | 1011.2 |
| 20260506084254 | 36 | 293 | 0.0 | 0.0 | 0.00 | 0.00 | 0.00 | 51 | 1011.2 |
| 20260506083755 | 36 | 293 | 0.0 | 0.0 | 0.00 | 0.00 | 0.00 | 50 | 1011.2 |
| 20260506083254 | 38 | 293 | 0.0 | 0.0 | 0.00 | 0.00 | 0.00 | 50 | 1011.2 |
| 20260506082754 | 42 | 293 | 0.0 | 0.9 | 0.00 | 0.00 | 0.00 | 49 | 1011.2 |
| 20260506082254 | 40 | 293 | 0.0 | 2.6 | 0.00 | 0.00 | 0.00 | 49 | 1011.2 |
| 20260506081756 | 42 | 285 | 0.9 | 2.6 | 0.00 | 0.00 | 0.00 | 48 | 1011.2 |
| 20260506081256 | 41 | 283 | 0.0 | 4.3 | 0.00 | 0.00 | 0.00 | 48 | 1011.2 |
| 20260506080755 | 39 | 262 | 0.0 | 6.1 | 0.00 | 0.00 | 0.00 | 48 | 1011.2 |
| 20260506080255 | 43 | 267 | 3.5 | 6.1 | 0.00 | 0.00 | 0.00 | 48 | 1011.2 |
| 20260506073255 | 41 | 221 | 0.0 | 0.0 | 0.00 | 0.00 | 0.00 | 48 | 1011.2 |
| 20260506072755 | 40 | 221 | 0.0 | 2.6 | 0.00 | 0.00 | 0.00 | 48 | 1011.2 |
| 20260506072255 | 37 | 221 | 0.0 | 2.6 | 0.00 | 0.00 | 0.00 | 48 | 1011.2 |
| 20260506071755 | 41 | 290 | 0.0 | 0.0 | 0.00 | 0.00 | 0.00 | 47 | 1011.2 |
| 20260506071254 | 38 | 290 | 0.0 | 0.0 | 0.00 | 0.00 | 0.00 | 46 | 1011.2 |
| 20260506070754 | 34 | 290 | 0.0 | 0.0 | 0.00 | 0.00 | 0.00 | 45 | 1011.2 |
| 20260506070254 | 37 | 290 | 0.0 | 0.0 | 0.00 | 0.00 | 0.00 | 45 | 1011.2 |
| 20260506062254 | 45 | 290 | 0.0 | 1.7 | 0.00 | 0.00 | 0.00 | 46 | 1010.9 |
| 20260506061754 | 43 | 290 | 0.0 | 2.6 | 0.00 | 0.00 | 0.00 | 46 | 1010.9 |
| 20260506061254 | 39 | 291 | 1.7 | 2.6 | 0.00 | 0.00 | 0.00 | 46 | 1010.9 |
| 20260506060756 | 38 | 277 | 0.0 | 0.0 | 0.00 | 0.00 | 0.00 | 45 | 1010.5 |
| 20260506060255 | 35 | 277 | 0.0 | 0.0 | 0.00 | 0.00 | 0.00 | 45 | 1010.5 |
| 20260506051255 | 64 | 305 | 3.5 | 6.1 | 0.00 | 0.00 | 0.00 | 44 | 1010.2 |
| 20260506050754 | 64 | 293 | 2.6 | 6.1 | 0.00 | 0.00 | 0.00 | 44 | 1010.2 |
| 20260506050254 | 64 | 271 | 3.5 | 7.0 | 0.00 | 0.00 | 0.00 | 43 | 1009.9 |
| 20260506044755 | 64 | 290 | 5.2 | 8.7 | 0.00 | 0.00 | 0.00 | 43 | 1009.5 |
| 20260506044255 | 62 | 280 | 5.2 | 11.3 | 0.00 | 0.00 | 0.00 | 43 | 1009.5 |
| 20260506043755 | 64 | 245 | 5.2 | 11.3 | 0.00 | 0.00 | 0.00 | 43 | 1009.5 |
| 20260506043254 | 65 | 284 | 4.3 | 8.7 | 0.00 | 0.00 | 0.00 | 43 | 1009.5 |
| 20260506042756 | 65 | 276 | 4.3 | 9.6 | 0.00 | 0.00 | 0.00 | 43 | 1009.5 |
| 20260506042256 | 65 | 288 | 3.5 | 9.6 | 0.00 | 0.00 | 0.00 | 43 | 1009.5 |
| 20260506041755 | 65 | 291 | 5.2 | 8.7 | 0.00 | 0.00 | 0.00 | 43 | 1009.2 |
| 20260506041255 | 66 | 298 | 4.3 | 8.7 | 0.00 | 0.00 | 0.00 | 43 | 1009.2 |
| 20260506040755 | 66 | 271 | 5.2 | 8.7 | 0.00 | 0.00 | 0.00 | 43 | 1009.2 |
| 20260506040254 | 66 | 297 | 3.5 | 8.7 | 0.00 | 0.00 | 0.00 | 43 | 1009.2 |
| 20260506035754 | 66 | 266 | 4.3 | 8.7 | 0.00 | 0.00 | 0.00 | 43 | 1009.2 |
| 20260506035254 | 66 | 284 | 4.3 | 7.8 | 0.00 | 0.00 | 0.00 | 43 | 1009.2 |
| 20260506034754 | 66 | 316 | 2.6 | 8.7 | 0.00 | 0.00 | 0.00 | 42 | 1009.2 |
| 20260506034256 | 66 | 176 | 5.2 | 8.7 | 0.00 | 0.00 | 0.00 | 42 | 1008.8 |
| 20260506033755 | 66 | 259 | 4.3 | 8.7 | 0.00 | 0.00 | 0.00 | 42 | 1008.5 |
| 20260506033255 | 66 | 231 | 3.5 | 8.7 | 0.00 | 0.00 | 0.00 | 42 | 1008.8 |
| 20260506032755 | 66 | 252 | 4.3 | 7.8 | 0.00 | 0.00 | 0.00 | 42 | 1008.5 |
| 20260506032255 | 66 | 271 | 3.5 | 7.8 | 0.00 | 0.00 | 0.00 | 42 | 1008.5 |
| 20260506031755 | 67 | 242 | 4.3 | 8.7 | 0.00 | 0.00 | 0.00 | 42 | 1008.5 |
| 20260506031255 | 67 | 266 | 4.3 | 10.4 | 0.00 | 0.00 | 0.00 | 41 | 1008.5 |
| 20260506030754 | 67 | 243 | 4.3 | 10.4 | 0.00 | 0.00 | 0.00 | 41 | 1008.5 |
| 20260506030255 | 67 | 276 | 4.3 | 8.7 | 0.00 | 0.00 | 0.00 | 41 | 1008.2 |
| 20260506025755 | 67 | 256 | 3.5 | 8.7 | 0.00 | 0.00 | 0.00 | 41 | 1008.2 |
| 20260506025254 | 67 | 257 | 4.3 | 8.7 | 0.00 | 0.00 | 0.00 | 40 | 1008.2 |
| 20260506024754 | 68 | 259 | 2.6 | 8.7 | 0.00 | 0.00 | 0.00 | 40 | 1008.2 |
| 20260506024254 | 68 | 246 | 5.2 | 7.0 | 0.00 | 0.00 | 0.00 | 39 | 1008.2 |
| 20260506023754 | 68 | 131 | 0.9 | 7.8 | 0.00 | 0.00 | 0.00 | 37 | 1007.8 |
| 20260506023256 | 68 | 245 | 2.6 | 7.8 | 0.00 | 0.00 | 0.00 | 37 | 1007.8 |
| 20260506022755 | 68 | 233 | 4.3 | 7.8 | 0.00 | 0.00 | 0.00 | 37 | 1007.8 |
| 20260506022255 | 68 | 205 | 4.3 | 7.0 | 0.00 | 0.00 | 0.00 | 37 | 1007.8 |
| 20260506021755 | 68 | 249 | 4.3 | 7.0 | 0.00 | 0.00 | 0.00 | 37 | 1007.8 |
| 20260506021255 | 68 | 252 | 3.5 | 7.8 | 0.00 | 0.00 | 0.00 | 37 | 1007.5 |
| 20260506020755 | 68 | 264 | 4.3 | 7.8 | 0.00 | 0.00 | 0.00 | 36 | 1007.5 |
| 20260506020254 | 68 | 163 | 2.6 | 8.7 | 0.00 | 0.00 | 0.00 | 36 | 1007.5 |
| 20260506015754 | 68 | 152 | 3.5 | 8.7 | 0.00 | 0.00 | 0.00 | 35 | 1007.5 |
| 20260506015256 | 68 | 208 | 3.5 | 6.1 | 0.00 | 0.00 | 0.00 | 35 | 1007.5 |
| 20260506014756 | 69 | 201 | 2.6 | 7.0 | 0.00 | 0.00 | 0.00 | 35 | 1007.5 |
| 20260506014255 | 69 | 173 | 2.6 | 7.8 | 0.00 | 0.00 | 0.00 | 34 | 1007.5 |
| 20260506013755 | 69 | 145 | 4.3 | 7.8 | 0.00 | 0.00 | 0.00 | 34 | 1007.5 |
| 20260506013254 | 70 | 183 | 2.6 | 8.7 | 0.00 | 0.00 | 0.00 | 33 | 1007.5 |
| 20260506012754 | 70 | 256 | 1.7 | 8.7 | 0.00 | 0.00 | 0.00 | 33 | 1007.5 |
| 20260506012256 | 70 | 240 | 2.6 | 7.0 | 0.00 | 0.00 | 0.00 | 33 | 1007.5 |
| 20260506011755 | 70 | 165 | 3.5 | 7.0 | 0.00 | 0.00 | 0.00 | 33 | 1007.5 |
| 20260506011255 | 70 | 236 | 1.7 | 6.1 | 0.00 | 0.00 | 0.00 | 33 | 1007.5 |
| 20260506010755 | 70 | 181 | 2.6 | 6.1 | 0.00 | 0.00 | 0.00 | 32 | 1007.5 |
| 20260506010254 | 70 | 122 | 0.0 | 7.8 | 0.00 | 0.00 | 0.00 | 31 | 1007.2 |
| 20260506005756 | 70 | 169 | 4.3 | 7.8 | 0.00 | 0.00 | 0.00 | 32 | 1007.2 |
| 20260506005255 | 70 | 194 | 2.6 | 7.0 | 0.00 | 0.00 | 0.00 | 31 | 1007.2 |
| 20260506004755 | 70 | 225 | 2.6 | 6.1 | 0.00 | 0.00 | 0.00 | 31 | 1007.2 |
| 20260506004255 | 70 | 233 | 4.3 | 6.1 | 0.00 | 0.00 | 0.00 | 31 | 1007.2 |
| 20260506003756 | 70 | 208 | 0.9 | 6.1 | 0.00 | 0.00 | 0.00 | 32 | 1007.2 |
| 20260506003256 | 70 | 72 | 2.6 | 4.3 | 0.00 | 0.00 | 0.00 | 31 | 1007.2 |
| 20260506002755 | 71 | 222 | 2.6 | 4.3 | 0.00 | 0.00 | 0.00 | 31 | 1007.2 |
| 20260506002255 | 70 | 260 | 0.0 | 3.5 | 0.00 | 0.00 | 0.00 | 31 | 1007.2 |
| 20260506001754 | 70 | 77 | 0.9 | 7.0 | 0.00 | 0.00 | 0.00 | 31 | 1007.2 |
| 20260506001254 | 70 | 158 | 2.6 | 9.6 | 0.00 | 0.00 | 0.00 | 32 | 1007.5 |
| 20260506000754 | 70 | 243 | 6.1 | 9.6 | 0.00 | 0.00 | 0.00 | 31 | 1007.2 |
| 20260506000256 | 70 | 276 | 6.1 | 7.8 | 0.00 | 0.00 | 0.00 | 32 | 1007.2 |
| 20260505235756 | 70 | 158 | 2.6 | 6.1 | 0.00 | 0.00 | 0.00 | 31 | 1007.2 |
| 20260505235255 | 71 | 152 | 0.9 | 6.1 | 0.00 | 0.00 | 0.00 | 31 | 1007.2 |
| 20260505234755 | 70 | 295 | 3.5 | 7.0 | 0.00 | 0.00 | 0.00 | 32 | 1007.2 |
| 20260505234255 | 70 | 293 | 3.5 | 7.0 | 0.00 | 0.00 | 0.00 | 32 | 1007.2 |
| 20260505233754 | 70 | 304 | 3.5 | 12.2 | 0.00 | 0.00 | 0.00 | 33 | 1007.2 |
| 20260505233256 | 69 | 263 | 5.2 | 12.2 | 0.00 | 0.00 | 0.00 | 33 | 1007.2 |
| 20260505232755 | 69 | 13 | 2.6 | 9.6 | 0.00 | 0.00 | 0.00 | 33 | 1007.2 |
| 20260505232255 | 69 | 115 | 5.2 | 9.6 | 0.00 | 0.00 | 0.00 | 33 | 1007.2 |
| 20260505231755 | 69 | 82 | 0.0 | 5.2 | 0.00 | 0.00 | 0.00 | 34 | 1007.2 |
| 20260505231254 | 69 | 146 | 0.0 | 5.2 | 0.00 | 0.00 | 0.00 | 33 | 1007.5 |
| 20260505230754 | 69 | 145 | 1.7 | 7.8 | 0.00 | 0.00 | 0.00 | 34 | 1007.5 |
| 20260505230256 | 69 | 136 | 5.2 | 8.7 | 0.00 | 0.00 | 0.00 | 33 | 1007.5 |
| 20260505225755 | 69 | 117 | 4.3 | 8.7 | 0.00 | 0.00 | 0.00 | 34 | 1007.5 |
| 20260505225255 | 69 | 127 | 3.5 | 8.7 | 0.00 | 0.00 | 0.00 | 34 | 1007.5 |
| 20260505224755 | 69 | 266 | 2.6 | 8.7 | 0.00 | 0.00 | 0.00 | 33 | 1007.8 |
| 20260505224254 | 69 | 129 | 0.0 | 7.8 | 0.00 | 0.00 | 0.00 | 33 | 1007.8 |
| 20260505223755 | 69 | 141 | 2.6 | 11.3 | 0.00 | 0.00 | 0.00 | 33 | 1007.8 |
| 20260505223254 | 70 | 176 | 5.2 | 11.3 | 0.00 | 0.00 | 0.00 | 32 | 1007.8 |
| 20260505222756 | 70 | 138 | 2.6 | 8.7 | 0.00 | 0.00 | 0.00 | 33 | 1007.8 |
| 20260505222256 | 70 | 318 | 4.3 | 7.8 | 0.00 | 0.00 | 0.00 | 33 | 1007.8 |
| 20260505221756 | 70 | 262 | 3.5 | 7.8 | 0.00 | 0.00 | 0.00 | 33 | 1008.2 |
| 20260505221255 | 70 | 253 | 4.3 | 7.8 | 0.00 | 0.00 | 0.00 | 33 | 1008.2 |
| 20260505220754 | 70 | 293 | 1.7 | 7.0 | 0.00 | 0.00 | 0.00 | 34 | 1008.2 |
| 20260505220255 | 70 | 181 | 3.5 | 7.8 | 0.00 | 0.00 | 0.00 | 34 | 1008.2 |
| 20260505215755 | 70 | 141 | 3.5 | 7.8 | 0.00 | 0.00 | 0.00 | 34 | 1008.2 |
| 20260505215255 | 69 | 259 | 0.0 | 8.7 | 0.00 | 0.00 | 0.00 | 34 | 1008.2 |
| 20260505214755 | 68 | 269 | 3.5 | 8.7 | 0.00 | 0.00 | 0.00 | 35 | 1008.5 |
| 20260505214255 | -55 | 135 | 4.3 | 8.7 | 0.00 | 0.00 | 0.00 | 35 | 1008.5 |
| 20260505213755 | 21 | 91 | 4.3 | 6.1 | 0.00 | 0.00 | 0.00 | 35 | 1008.5 |
| 20260505213255 | 21 | 80 | 0.9 | 7.0 | 0.00 | 0.00 | 0.00 | 36 | 1008.5 |
| 20260505212755 | 39 | 211 | 1.7 | 8.7 | 0.00 | 0.00 | 0.00 | 36 | 1008.5 |
| 20260505212255 | 27 | 75 | 5.2 | 8.7 | 0.00 | 0.00 | 0.00 | 36 | 1008.5 |
| 20260505211754 | 21 | 89 | 4.3 | 12.2 | 0.00 | 0.00 | 0.00 | 37 | 1008.5 |
| 20260505211254 | 25 | 41 | 6.1 | 12.2 | 0.00 | 0.00 | 0.00 | 36 | 1008.8 |
| 20260505210754 | 26 | 113 | 5.2 | 8.7 | 0.00 | 0.00 | 0.00 | 36 | 1008.8 |
| 20260505210255 | 35 | 203 | 6.1 | 9.6 | 0.00 | 0.00 | 0.00 | 36 | 1008.8 |
| 20260505205755 | 32 | 250 | 4.3 | 9.6 | 0.00 | 0.00 | 0.00 | 36 | 1008.8 |
| 20260505205254 | 41 | 249 | 0.9 | 8.7 | 0.00 | 0.00 | 0.00 | 37 | 1008.8 |
| 20260505204754 | 37 | 215 | 2.6 | 8.7 | 0.00 | 0.00 | 0.00 | 38 | 1008.8 |